,,,PA_Meas_PMT16A,,PR_Meas_QMR101_102,,RH_Meas_QMH101,,SR_Meas_QMS101,,TA_Meas_QMH101,,GenWind,,GenWind,
date,time,status,PA,status,PR,status,RH,status,SR,status,TA,status,DirAvg,status,SpdAvg,
2012-12-10, 00:00:05,VALID,1009.29,VALID,0,VALID,104,VALID,0,VALID,23.694,VALID,222,VALID,0.144922,
2012-12-10, 00:01:05,VALID,1009.27,VALID,0,VALID,104,VALID,0.112112,VALID,23.6532,VALID,223,VALID,0.0601562,
2012-12-10, 00:02:05,VALID,1009.26,VALID,0,VALID,104,VALID,0,VALID,23.6532,VALID,223,VALID,0.00703125,
2012-12-10, 00:03:05,VALID,1009.28,VALID,0,VALID,104,VALID,0.112112,VALID,23.6727,VALID,222,VALID,0.260156,
2012-12-10, 00:04:05,VALID,1009.26,VALID,0,VALID,104,VALID,0.112112,VALID,23.6727,VALID,223,VALID,0.274219,
2012-12-10, 00:05:05,VALID,1009.26,VALID,0,VALID,104,VALID,0.112112,VALID,23.6745,VALID,223,VALID,0.113672,
2012-12-10, 00:06:05,VALID,1009.28,VALID,0,VALID,104,VALID,0,VALID,23.694,VALID,223,VALID,0.0929687,
2012-12-10, 00:07:05,VALID,1009.28,VALID,0,VALID,104,VALID,0.112112,VALID,23.7135,VALID,223,VALID,0.310937,
2012-12-10, 00:08:05,VALID,1009.3,VALID,0,VALID,104,VALID,0,VALID,23.7135,VALID,222,VALID,0,
2012-12-10, 00:09:05,VALID,1009.32,VALID,0,VALID,104,VALID,0.112112,VALID,23.7525,VALID,222,VALID,0.0015625,
2012-12-10, 00:10:05,VALID,1009.31,VALID,0,VALID,104,VALID,0,VALID,23.7525,VALID,223,VALID,0.321484,
2012-12-10, 00:11:05,VALID,1009.27,VALID,0,VALID,104,VALID,0,VALID,23.7525,VALID,222,VALID,0.155859,
2012-12-10, 00:12:05,VALID,1009.33,VALID,0,VALID,104,VALID,0.112112,VALID,23.7312,VALID,223,VALID,0.151953,
2012-12-10, 00:13:05,VALID,1009.3,VALID,0,VALID,104,VALID,0.112112,VALID,23.7507,VALID,222,VALID,0.0015625,
2012-12-10, 00:14:05,VALID,1009.3,VALID,0,VALID,104,VALID,0.112112,VALID,23.772,VALID,223,VALID,0.0015625,
2012-12-10, 00:15:05,VALID,1009.3,VALID,0,VALID,104,VALID,0,VALID,23.7914,VALID,223,VALID,0.185156,
2012-12-10, 00:16:05,VALID,1009.28,VALID,0,VALID,104,VALID,0,VALID,23.772,VALID,223,VALID,0.349609,
2012-12-10, 00:17:05,VALID,1009.32,VALID,0,VALID,104,VALID,0.112112,VALID,23.7525,VALID,223,VALID,0.165625,
2012-12-10, 00:18:05,VALID,1009.3,VALID,0,VALID,104,VALID,0,VALID,23.7525,VALID,223,VALID,0,
2012-12-10, 00:19:05,VALID,1009.32,VALID,0,VALID,104,VALID,0,VALID,23.7525,VALID,223,VALID,0,
2012-12-10, 00:20:05,VALID,1009.31,VALID,0,VALID,104,VALID,0.112112,VALID,23.733,VALID,222,VALID,0.204688,
2012-12-10, 00:21:05,VALID,1009.32,VALID,0,VALID,104,VALID,0,VALID,23.7525,VALID,222,VALID,0.554688,
2012-12-10, 00:22:05,VALID,1009.32,VALID,0,VALID,104,VALID,0,VALID,23.694,VALID,222,VALID,0.604688,
2012-12-10, 00:23:05,VALID,1009.33,VALID,0,VALID,104,VALID,0,VALID,23.6727,VALID,222,VALID,0.499609,
2012-12-10, 00:24:05,VALID,1009.33,VALID,0,VALID,104,VALID,0.112112,VALID,23.6338,VALID,223,VALID,0.391406,
2012-12-10, 00:25:05,VALID,1009.31,VALID,0,VALID,104,VALID,0.112112,VALID,23.6143,VALID,222,VALID,0.319922,
2012-12-10, 00:26:05,VALID,1009.32,VALID,0,VALID,104,VALID,0,VALID,23.5948,VALID,223,VALID,0.301953,
2012-12-10, 00:27:05,VALID,1009.32,VALID,0,VALID,104,VALID,0,VALID,23.5966,VALID,223,VALID,0.315625,
2012-12-10, 00:28:05,VALID,1009.31,VALID,0,VALID,104,VALID,0,VALID,23.5966,VALID,223,VALID,0.267578,
2012-12-10, 00:29:05,VALID,1009.27,VALID,0,VALID,104,VALID,0,VALID,23.5558,VALID,223,VALID,0.548437,
2012-12-10, 00:30:05,VALID,1009.23,VALID,0,VALID,104,VALID,0.112112,VALID,23.5966,VALID,223,VALID,0.317578,
2012-12-10, 00:31:05,VALID,1009.18,VALID,0,VALID,104,VALID,0.112112,VALID,23.5771,VALID,223,VALID,0.547656,
2012-12-10, 00:32:05,VALID,1009.13,VALID,0,VALID,104,VALID,0,VALID,23.6161,VALID,222,VALID,0.402734,
2012-12-10, 00:33:05,VALID,1009.11,VALID,0,VALID,104,VALID,0,VALID,23.6161,VALID,223,VALID,0.530859,
2012-12-10, 00:34:05,VALID,1009.09,VALID,0,VALID,104,VALID,0,VALID,23.5966,VALID,223,VALID,0.230469,
2012-12-10, 00:35:05,VALID,1009.06,VALID,0,VALID,104,VALID,0,VALID,23.6161,VALID,223,VALID,0,
2012-12-10, 00:36:05,VALID,1009.08,VALID,0,VALID,104,VALID,0,VALID,23.5771,VALID,223,VALID,0,
2012-12-10, 00:37:05,VALID,1009.07,VALID,0,VALID,104,VALID,0,VALID,23.5771,VALID,222,VALID,0,
2012-12-10, 00:38:05,VALID,1009.09,VALID,0,VALID,104,VALID,0,VALID,23.5771,VALID,222,VALID,0,
2012-12-10, 00:39:05,VALID,1009.08,VALID,0,VALID,104,VALID,0,VALID,23.5966,VALID,223,VALID,0.0679687,
2012-12-10, 00:40:05,VALID,1009.07,VALID,0,VALID,104,VALID,0.112112,VALID,23.5966,VALID,223,VALID,0,
2012-12-10, 00:41:05,VALID,1009.08,VALID,0,VALID,104,VALID,0.112112,VALID,23.5948,VALID,223,VALID,0,
2012-12-10, 00:42:05,VALID,1009.06,VALID,0,VALID,104,VALID,0.112112,VALID,23.5753,VALID,223,VALID,0,
2012-12-10, 00:43:05,VALID,1009.07,VALID,0,VALID,104,VALID,0.112112,VALID,23.5753,VALID,222,VALID,0.244141,
2012-12-10, 00:44:05,VALID,1009.02,VALID,0,VALID,104,VALID,0.112112,VALID,23.5753,VALID,223,VALID,0,
2012-12-10, 00:45:05,VALID,1009,VALID,0,VALID,104,VALID,0.112112,VALID,23.5966,VALID,223,VALID,0,
2012-12-10, 00:46:05,VALID,1009.01,VALID,0,VALID,104,VALID,0.112112,VALID,23.5753,VALID,223,VALID,0,
2012-12-10, 00:47:05,VALID,1009.01,VALID,0,VALID,104,VALID,0,VALID,23.5966,VALID,223,VALID,0,
2012-12-10, 00:48:05,VALID,1008.97,VALID,0,VALID,104,VALID,0.112112,VALID,23.5753,VALID,223,VALID,0.270703,
2012-12-10, 00:49:05,VALID,1008.95,VALID,0,VALID,104,VALID,0.112112,VALID,23.5576,VALID,223,VALID,0.353906,
2012-12-10, 00:50:05,VALID,1008.94,VALID,0,VALID,104,VALID,0,VALID,23.5966,VALID,65,VALID,0.582812,
2012-12-10, 00:51:05,VALID,1008.94,VALID,0,VALID,104,VALID,0.112112,VALID,23.5558,VALID,65,VALID,0.404687,
2012-12-10, 00:52:05,VALID,1008.9,VALID,0,VALID,104,VALID,0,VALID,23.5753,VALID,65,VALID,0.487891,
2012-12-10, 00:53:05,VALID,1008.9,VALID,0,VALID,104,VALID,0,VALID,23.4992,VALID,65,VALID,0.305859,
2012-12-10, 00:54:05,VALID,1008.9,VALID,0,VALID,104,VALID,0,VALID,23.5753,VALID,65,VALID,0.186328,
2012-12-10, 00:55:05,VALID,1008.91,VALID,0,VALID,104,VALID,0,VALID,23.5771,VALID,65,VALID,0,
2012-12-10, 00:56:05,VALID,1008.92,VALID,0,VALID,104,VALID,0,VALID,23.6161,VALID,65,VALID,0,
2012-12-10, 00:57:05,VALID,1008.95,VALID,0,VALID,104,VALID,0,VALID,23.5771,VALID,65,VALID,0,
2012-12-10, 00:58:05,VALID,1008.94,VALID,0,VALID,104,VALID,0,VALID,23.6179,VALID,65,VALID,0,
2012-12-10, 00:59:05,VALID,1008.94,VALID,0,VALID,104,VALID,0,VALID,23.5771,VALID,65,VALID,0,
2012-12-10, 01:00:05,VALID,1008.98,VALID,0,VALID,104,VALID,0,VALID,23.5771,VALID,65,VALID,0,
2012-12-10, 01:01:05,VALID,1008.96,VALID,0,VALID,104,VALID,0.112112,VALID,23.5966,VALID,65,VALID,0,
2012-12-10, 01:02:05,VALID,1008.98,VALID,0,VALID,104,VALID,0,VALID,23.5771,VALID,65,VALID,0,
2012-12-10, 01:03:05,VALID,1008.95,VALID,0,VALID,104,VALID,0,VALID,23.5771,VALID,65,VALID,0,
2012-12-10, 01:04:05,VALID,1008.98,VALID,0,VALID,104,VALID,0,VALID,23.5966,VALID,65,VALID,0.344531,
2012-12-10, 01:05:05,VALID,1008.98,VALID,0,VALID,104,VALID,0,VALID,23.6356,VALID,65,VALID,0.210156,
2012-12-10, 01:06:05,VALID,1008.99,VALID,0,VALID,104,VALID,0.112112,VALID,23.655,VALID,65,VALID,0.440234,
2012-12-10, 01:07:05,VALID,1008.99,VALID,0,VALID,104,VALID,0,VALID,23.6745,VALID,65,VALID,0.546875,
2012-12-10, 01:08:05,VALID,1008.99,VALID,0,VALID,104,VALID,0,VALID,23.694,VALID,65,VALID,0.494141,
2012-12-10, 01:09:05,VALID,1009,VALID,0,VALID,104,VALID,0,VALID,23.6745,VALID,65,VALID,0.417969,
2012-12-10, 01:10:05,VALID,1009,VALID,0,VALID,104,VALID,0,VALID,23.6338,VALID,123,VALID,0.520312,
2012-12-10, 01:11:05,VALID,1009,VALID,0,VALID,104,VALID,0.112112,VALID,23.6532,VALID,128,VALID,0.416016,
2012-12-10, 01:12:05,VALID,1008.99,VALID,0,VALID,104,VALID,0,VALID,23.6338,VALID,128,VALID,0.388672,
2012-12-10, 01:13:05,VALID,1009.02,VALID,0,VALID,104,VALID,0,VALID,23.6745,VALID,133,VALID,0.74375,
2012-12-10, 01:14:05,VALID,1009.03,VALID,0,VALID,104,VALID,0,VALID,23.6356,VALID,155,VALID,0.762891,
2012-12-10, 01:15:05,VALID,1009.07,VALID,0,VALID,104,VALID,0,VALID,23.6745,VALID,157,VALID,0.674219,
2012-12-10, 01:16:05,VALID,1009.06,VALID,0,VALID,104,VALID,0.112112,VALID,23.6532,VALID,163,VALID,0.724609,
2012-12-10, 01:17:05,VALID,1009.09,VALID,0,VALID,104,VALID,0,VALID,23.6745,VALID,163,VALID,0.655469,
2012-12-10, 01:18:05,VALID,1009.05,VALID,0,VALID,104,VALID,0.112112,VALID,23.6338,VALID,163,VALID,0.592188,
2012-12-10, 01:19:05,VALID,1009.05,VALID,0,VALID,104,VALID,0.112112,VALID,23.655,VALID,163,VALID,0.698828,
2012-12-10, 01:20:05,VALID,1009.04,VALID,0,VALID,104,VALID,0,VALID,23.6356,VALID,163,VALID,0.374609,
2012-12-10, 01:21:05,VALID,1009.02,VALID,0,VALID,104,VALID,0,VALID,23.655,VALID,163,VALID,0.55625,
2012-12-10, 01:22:05,VALID,1008.98,VALID,0,VALID,104,VALID,0.112112,VALID,23.6338,VALID,155,VALID,0.714453,
2012-12-10, 01:23:05,VALID,1008.98,VALID,0,VALID,104,VALID,0,VALID,23.6356,VALID,156,VALID,0.563281,
2012-12-10, 01:24:05,VALID,1008.98,VALID,0,VALID,104,VALID,0,VALID,23.6143,VALID,141,VALID,0.569922,
2012-12-10, 01:25:05,VALID,1008.94,VALID,0,VALID,104,VALID,0,VALID,23.6161,VALID,141,VALID,0.553906,
2012-12-10, 01:26:05,VALID,1008.9,VALID,0,VALID,104,VALID,0,VALID,23.6356,VALID,141,VALID,0.226953,
2012-12-10, 01:27:05,VALID,1008.89,VALID,0,VALID,104,VALID,0,VALID,23.5558,VALID,141,VALID,0.142188,
2012-12-10, 01:28:05,VALID,1008.85,VALID,0,VALID,104,VALID,0.112112,VALID,23.6143,VALID,136,VALID,0.530469,
2012-12-10, 01:29:05,VALID,1008.85,VALID,0,VALID,104,VALID,0.112112,VALID,23.6161,VALID,106,VALID,0.667188,
2012-12-10, 01:30:05,VALID,1008.81,VALID,0,VALID,104,VALID,0.112112,VALID,23.5966,VALID,89,VALID,0.422266,
2012-12-10, 01:31:05,VALID,1008.76,VALID,0,VALID,104,VALID,0.112112,VALID,23.655,VALID,89,VALID,0.449219,
2012-12-10, 01:32:05,VALID,1008.75,VALID,0,VALID,104,VALID,0.112112,VALID,23.6143,VALID,89,VALID,0.548437,
2012-12-10, 01:33:05,VALID,1008.76,VALID,0,VALID,104,VALID,0.112112,VALID,23.6161,VALID,89,VALID,0.351172,
2012-12-10, 01:34:05,VALID,1008.73,VALID,0,VALID,104,VALID,0,VALID,23.6338,VALID,89,VALID,0.107422,
2012-12-10, 01:35:05,VALID,1008.71,VALID,0,VALID,104,VALID,0.112112,VALID,23.5948,VALID,89,VALID,0.430859,
2012-12-10, 01:36:05,VALID,1008.69,VALID,0,VALID,104,VALID,0.112112,VALID,23.6532,VALID,89,VALID,0.438672,
2012-12-10, 01:37:05,VALID,1008.65,VALID,0,VALID,104,VALID,0.112112,VALID,23.655,VALID,88,VALID,0.579687,
2012-12-10, 01:38:05,VALID,1008.63,VALID,0,VALID,104,VALID,0.112112,VALID,23.6338,VALID,89,VALID,0.477734,
2012-12-10, 01:39:05,VALID,1008.62,VALID,0,VALID,104,VALID,0.112112,VALID,23.6356,VALID,57,VALID,0.643359,
2012-12-10, 01:40:05,VALID,1008.6,VALID,0,VALID,104,VALID,0,VALID,23.6161,VALID,50,VALID,0.467187,
2012-12-10, 01:41:05,VALID,1008.61,VALID,0,VALID,104,VALID,0.112112,VALID,23.5558,VALID,50,VALID,0.421484,
2012-12-10, 01:42:05,VALID,1008.59,VALID,0,VALID,104,VALID,0.112112,VALID,23.5169,VALID,50,VALID,0.517969,
2012-12-10, 01:43:05,VALID,1008.58,VALID,0,VALID,104,VALID,0,VALID,23.5169,VALID,50,VALID,0.489062,
2012-12-10, 01:44:05,VALID,1008.59,VALID,0,VALID,104,VALID,0,VALID,23.5381,VALID,50,VALID,0.571094,
2012-12-10, 01:45:05,VALID,1008.6,VALID,0,VALID,104,VALID,0,VALID,23.5169,VALID,50,VALID,0.707422,
2012-12-10, 01:46:05,VALID,1008.58,VALID,0,VALID,104,VALID,0.112112,VALID,23.4974,VALID,52,VALID,0.804688,
2012-12-10, 01:47:05,VALID,1008.57,VALID,0,VALID,104,VALID,0.112112,VALID,23.4974,VALID,58,VALID,0.555469,
2012-12-10, 01:48:05,VALID,1008.55,VALID,0,VALID,104,VALID,0,VALID,23.5186,VALID,58,VALID,0.0671875,
2012-12-10, 01:49:05,VALID,1008.56,VALID,0,VALID,104,VALID,0.112112,VALID,23.5186,VALID,59,VALID,0,
2012-12-10, 01:50:05,VALID,1008.54,VALID,0,VALID,104,VALID,0.112112,VALID,23.4974,VALID,41,VALID,0.664063,
2012-12-10, 01:51:05,VALID,1008.54,VALID,0,VALID,104,VALID,0.112112,VALID,23.4779,VALID,37,VALID,0.181641,
2012-12-10, 01:52:05,VALID,1008.54,VALID,0,VALID,104,VALID,0,VALID,23.4602,VALID,37,VALID,0.146484,
2012-12-10, 01:53:05,VALID,1008.52,VALID,0,VALID,104,VALID,0,VALID,23.4389,VALID,38,VALID,0.432422,
2012-12-10, 01:54:05,VALID,1008.49,VALID,0,VALID,104,VALID,0,VALID,23.4602,VALID,37,VALID,0.303906,
2012-12-10, 01:55:05,VALID,1008.51,VALID,0,VALID,104,VALID,0,VALID,23.4797,VALID,37,VALID,0.445703,
2012-12-10, 01:56:05,VALID,1008.5,VALID,0,VALID,104,VALID,0,VALID,23.4602,VALID,39,VALID,0.602344,
2012-12-10, 01:57:05,VALID,1008.49,VALID,0,VALID,104,VALID,0.112112,VALID,23.4389,VALID,39,VALID,0.573828,
2012-12-10, 01:58:05,VALID,1008.51,VALID,0,VALID,104,VALID,0,VALID,23.4797,VALID,40,VALID,0.502344,
2012-12-10, 01:59:05,VALID,1008.51,VALID,0,VALID,104,VALID,0,VALID,23.4992,VALID,40,VALID,0.589844,
2012-12-10, 02:00:05,VALID,1008.49,VALID,0,VALID,104,VALID,0,VALID,23.4992,VALID,40,VALID,0.288281,
2012-12-10, 02:01:05,VALID,1008.5,VALID,0,VALID,104,VALID,0,VALID,23.4992,VALID,40,VALID,0.404297,
2012-12-10, 02:02:05,VALID,1008.51,VALID,0,VALID,104,VALID,0,VALID,23.5186,VALID,40,VALID,0.411719,
2012-12-10, 02:03:05,VALID,1008.52,VALID,0,VALID,104,VALID,0,VALID,23.5186,VALID,40,VALID,0.241406,
2012-12-10, 02:04:05,VALID,1008.52,VALID,0,VALID,104,VALID,0.112112,VALID,23.5186,VALID,89,VALID,0.684375,
2012-12-10, 02:05:05,VALID,1008.54,VALID,0,VALID,104,VALID,0,VALID,23.5186,VALID,88,VALID,0.727344,
2012-12-10, 02:06:05,VALID,1008.54,VALID,0,VALID,104,VALID,0,VALID,23.4797,VALID,80,VALID,0.289063,
2012-12-10, 02:07:05,VALID,1008.54,VALID,0,VALID,104,VALID,0,VALID,23.4992,VALID,80,VALID,0.5125,
2012-12-10, 02:08:05,VALID,1008.52,VALID,0,VALID,104,VALID,0,VALID,23.4797,VALID,88,VALID,0.589844,
2012-12-10, 02:09:05,VALID,1008.54,VALID,0,VALID,104,VALID,0,VALID,23.4992,VALID,87,VALID,0.589063,
2012-12-10, 02:10:05,VALID,1008.57,VALID,0,VALID,104,VALID,0,VALID,23.4779,VALID,83,VALID,0.535156,
2012-12-10, 02:11:05,VALID,1008.56,VALID,0,VALID,104,VALID,0,VALID,23.4992,VALID,83,VALID,0.761328,
2012-12-10, 02:12:05,VALID,1008.58,VALID,0,VALID,104,VALID,0,VALID,23.4974,VALID,83,VALID,0.639063,
2012-12-10, 02:13:05,VALID,1008.57,VALID,0,VALID,104,VALID,0.112112,VALID,23.5381,VALID,83,VALID,0.616406,
2012-12-10, 02:14:05,VALID,1008.55,VALID,0,VALID,104,VALID,0.112112,VALID,23.5186,VALID,95,VALID,0.963281,
2012-12-10, 02:15:05,VALID,1008.56,VALID,0,VALID,104,VALID,0,VALID,23.4797,VALID,85,VALID,0.503516,
2012-12-10, 02:16:05,VALID,1008.5,VALID,0,VALID,104,VALID,0,VALID,23.4992,VALID,86,VALID,0.304688,
2012-12-10, 02:17:05,VALID,1008.49,VALID,0,VALID,104,VALID,0,VALID,23.4992,VALID,86,VALID,0.444141,
2012-12-10, 02:18:05,VALID,1008.47,VALID,0,VALID,104,VALID,0,VALID,23.4797,VALID,131,VALID,0.555078,
2012-12-10, 02:19:05,VALID,1008.5,VALID,0,VALID,104,VALID,0,VALID,23.4797,VALID,131,VALID,0.494141,
2012-12-10, 02:20:04,VALID,1008.51,VALID,0,VALID,104,VALID,0,VALID,23.4602,VALID,131,VALID,0.551562,
2012-12-10, 02:21:04,VALID,1008.52,VALID,0,VALID,104,VALID,0,VALID,23.4602,VALID,131,VALID,0.56875,
2012-12-10, 02:22:04,VALID,1008.53,VALID,0,VALID,104,VALID,0,VALID,23.4407,VALID,131,VALID,0.658594,
2012-12-10, 02:23:04,VALID,1008.57,VALID,0,VALID,104,VALID,0,VALID,23.4407,VALID,131,VALID,0.842969,
2012-12-10, 02:24:04,VALID,1008.56,VALID,0,VALID,104,VALID,0,VALID,23.4992,VALID,132,VALID,0.630078,
2012-12-10, 02:25:04,VALID,1008.54,VALID,0,VALID,104,VALID,0,VALID,23.4602,VALID,131,VALID,0.632031,
2012-12-10, 02:26:04,VALID,1008.53,VALID,0,VALID,104,VALID,0,VALID,23.4407,VALID,138,VALID,0.738281,
2012-12-10, 02:27:04,VALID,1008.49,VALID,0,VALID,104,VALID,0,VALID,23.4602,VALID,139,VALID,0.734375,
2012-12-10, 02:28:04,VALID,1008.46,VALID,0,VALID,104,VALID,0,VALID,23.4602,VALID,139,VALID,0.537109,
2012-12-10, 02:29:04,VALID,1008.47,VALID,0,VALID,104,VALID,0,VALID,23.4602,VALID,132,VALID,0.407031,
2012-12-10, 02:30:04,VALID,1008.42,VALID,0,VALID,104,VALID,0,VALID,23.5576,VALID,132,VALID,0.566797,
2012-12-10, 02:31:04,VALID,1008.41,VALID,0,VALID,104,VALID,0,VALID,23.5186,VALID,109,VALID,0.592578,
2012-12-10, 02:32:04,VALID,1008.38,VALID,0,VALID,104,VALID,0,VALID,23.4992,VALID,109,VALID,0.642578,
2012-12-10, 02:33:04,VALID,1008.37,VALID,0,VALID,104,VALID,0,VALID,23.4797,VALID,121,VALID,0.485547,
2012-12-10, 02:34:04,VALID,1008.36,VALID,0,VALID,104,VALID,0,VALID,23.4992,VALID,127,VALID,0.641016,
2012-12-10, 02:35:04,VALID,1008.39,VALID,0,VALID,104,VALID,0,VALID,23.4992,VALID,128,VALID,0.204688,
2012-12-10, 02:36:04,VALID,1008.38,VALID,0,VALID,104,VALID,0,VALID,23.4992,VALID,116,VALID,0.738281,
2012-12-10, 02:37:04,VALID,1008.39,VALID,0,VALID,104,VALID,0,VALID,23.4584,VALID,157,VALID,0.980078,
2012-12-10, 02:38:04,VALID,1008.39,VALID,0,VALID,104,VALID,0,VALID,23.4602,VALID,138,VALID,0.728125,
2012-12-10, 02:39:04,VALID,1008.39,VALID,0,VALID,104,VALID,0,VALID,23.4797,VALID,130,VALID,0.4,
2012-12-10, 02:40:04,VALID,1008.39,VALID,0,VALID,104,VALID,0,VALID,23.4797,VALID,121,VALID,0.707812,
2012-12-10, 02:41:04,VALID,1008.4,VALID,0,VALID,104,VALID,0,VALID,23.4797,VALID,115,VALID,0.674219,
2012-12-10, 02:42:04,VALID,1008.39,VALID,0,VALID,104,VALID,0,VALID,23.5771,VALID,100,VALID,0.70625,
2012-12-10, 02:43:04,VALID,1008.38,VALID,0,VALID,104,VALID,0,VALID,23.5363,VALID,114,VALID,0.767578,
2012-12-10, 02:44:04,VALID,1008.38,VALID,0,VALID,104,VALID,0,VALID,23.5381,VALID,112,VALID,0.921875,
2012-12-10, 02:45:04,VALID,1008.37,VALID,0,VALID,104,VALID,0,VALID,23.4992,VALID,114,VALID,0.812109,
2012-12-10, 02:46:04,VALID,1008.36,VALID,0,VALID,104,VALID,0,VALID,23.4992,VALID,109,VALID,0.899219,
2012-12-10, 02:47:04,VALID,1008.32,VALID,0,VALID,104,VALID,0,VALID,23.5186,VALID,109,VALID,0.729297,
2012-12-10, 02:48:04,VALID,1008.32,VALID,0,VALID,104,VALID,0,VALID,23.4974,VALID,118,VALID,0.706641,
2012-12-10, 02:49:04,VALID,1008.33,VALID,0,VALID,104,VALID,0,VALID,23.5381,VALID,116,VALID,0.656641,
2012-12-10, 02:50:04,VALID,1008.35,VALID,0,VALID,104,VALID,0,VALID,23.5204,VALID,132,VALID,0.992578,
2012-12-10, 02:51:04,VALID,1008.32,VALID,0,VALID,104,VALID,0,VALID,23.4992,VALID,129,VALID,1.08516,
2012-12-10, 02:52:04,VALID,1008.32,VALID,0,VALID,104,VALID,0,VALID,23.4992,VALID,134,VALID,1.22578,
2012-12-10, 02:53:04,VALID,1008.34,VALID,0,VALID,104,VALID,0,VALID,23.4797,VALID,106,VALID,0.93125,
2012-12-10, 02:54:04,VALID,1008.34,VALID,0,VALID,104,VALID,0,VALID,23.4992,VALID,142,VALID,0.838672,
2012-12-10, 02:55:04,VALID,1008.36,VALID,0,VALID,104,VALID,0,VALID,23.4992,VALID,145,VALID,0.835156,
2012-12-10, 02:56:04,VALID,1008.36,VALID,0,VALID,104,VALID,0,VALID,23.4992,VALID,145,VALID,0.866797,
2012-12-10, 02:57:04,VALID,1008.39,VALID,0,VALID,104,VALID,0,VALID,23.4797,VALID,150,VALID,0.313281,
2012-12-10, 02:58:04,VALID,1008.37,VALID,0,VALID,104,VALID,0,VALID,23.4797,VALID,155,VALID,0.753516,
2012-12-10, 02:59:04,VALID,1008.38,VALID,0,VALID,104,VALID,0,VALID,23.4602,VALID,122,VALID,0.848828,
2012-12-10, 03:00:04,VALID,1008.4,VALID,0,VALID,104,VALID,0,VALID,23.462,VALID,127,VALID,1.47344,
2012-12-10, 03:01:04,VALID,1008.39,VALID,0,VALID,104,VALID,0,VALID,23.4212,VALID,120,VALID,1.09023,
2012-12-10, 03:02:04,VALID,1008.39,VALID,0,VALID,104,VALID,0,VALID,23.4212,VALID,115,VALID,0.548437,
2012-12-10, 03:03:04,VALID,1008.4,VALID,0,VALID,104,VALID,0,VALID,23.3805,VALID,130,VALID,1.65508,
2012-12-10, 03:04:04,VALID,1008.44,VALID,0,VALID,104,VALID,0,VALID,23.3823,VALID,133,VALID,1.35859,
2012-12-10, 03:05:04,VALID,1008.47,VALID,0,VALID,104,VALID,0,VALID,23.4,VALID,142,VALID,0.707031,
2012-12-10, 03:06:04,VALID,1008.45,VALID,0,VALID,104,VALID,0,VALID,23.4017,VALID,130,VALID,0.942969,
2012-12-10, 03:07:04,VALID,1008.48,VALID,0,VALID,104,VALID,0,VALID,23.4017,VALID,130,VALID,0.731641,
2012-12-10, 03:08:04,VALID,1008.48,VALID,0,VALID,104,VALID,0,VALID,23.3415,VALID,131,VALID,1.60195,
2012-12-10, 03:09:04,VALID,1008.52,VALID,0,VALID,104,VALID,0,VALID,23.384,VALID,137,VALID,0.728906,
2012-12-10, 03:10:04,VALID,1008.53,VALID,0,VALID,104,VALID,0,VALID,23.3823,VALID,124,VALID,0.976563,
2012-12-10, 03:11:04,VALID,1008.53,VALID,0,VALID,104,VALID,0,VALID,23.3238,VALID,149,VALID,1.53281,
2012-12-10, 03:12:04,VALID,1008.55,VALID,0,VALID,104,VALID,0,VALID,23.3238,VALID,152,VALID,0.787109,
2012-12-10, 03:13:04,VALID,1008.57,VALID,0,VALID,104,VALID,0,VALID,23.3433,VALID,149,VALID,1.10703,
2012-12-10, 03:14:04,VALID,1008.57,VALID,0,VALID,104,VALID,0,VALID,23.2848,VALID,174,VALID,1.47852,
2012-12-10, 03:15:04,VALID,1008.55,VALID,0,VALID,104,VALID,0,VALID,23.2848,VALID,144,VALID,0.636328,
2012-12-10, 03:16:04,VALID,1008.56,VALID,0,VALID,104,VALID,0,VALID,23.3043,VALID,137,VALID,0.785156,
2012-12-10, 03:17:04,VALID,1008.55,VALID,0,VALID,104,VALID,0,VALID,23.3043,VALID,147,VALID,1.11016,
2012-12-10, 03:18:04,VALID,1008.54,VALID,0,VALID,104,VALID,0,VALID,23.3043,VALID,143,VALID,0.896875,
2012-12-10, 03:19:04,VALID,1008.55,VALID,0,VALID,104,VALID,0,VALID,23.2264,VALID,145,VALID,1.19531,
2012-12-10, 03:20:04,VALID,1008.55,VALID,0,VALID,104,VALID,0,VALID,23.2264,VALID,149,VALID,1.71563,
2012-12-10, 03:21:04,VALID,1008.55,VALID,0,VALID,104,VALID,0,VALID,23.2069,VALID,135,VALID,1.45859,
2012-12-10, 03:22:04,VALID,1008.57,VALID,0,VALID,104,VALID,0,VALID,23.129,VALID,111,VALID,1.61758,
2012-12-10, 03:23:04,VALID,1008.61,VALID,0,VALID,104,VALID,0,VALID,23.09,VALID,143,VALID,1.87305,
2012-12-10, 03:24:04,VALID,1008.6,VALID,0,VALID,104,VALID,0,VALID,23.129,VALID,139,VALID,0.830078,
2012-12-10, 03:25:04,VALID,1008.59,VALID,0,VALID,104,VALID,0,VALID,23.09,VALID,108,VALID,1.04297,
2012-12-10, 03:26:04,VALID,1008.58,VALID,0,VALID,104,VALID,0,VALID,23.1095,VALID,150,VALID,0.810156,
2012-12-10, 03:27:04,VALID,1008.61,VALID,0,VALID,104,VALID,0,VALID,23.1095,VALID,160,VALID,1.31875,
2012-12-10, 03:28:04,VALID,1008.61,VALID,0,VALID,104,VALID,0,VALID,23.0316,VALID,160,VALID,1.39219,
2012-12-10, 03:29:04,VALID,1008.67,VALID,0,VALID,104,VALID,0,VALID,23.0316,VALID,148,VALID,1.08203,
2012-12-10, 03:30:04,VALID,1008.69,VALID,0,VALID,104,VALID,0,VALID,23.0316,VALID,120,VALID,1.3875,
2012-12-10, 03:31:04,VALID,1008.76,VALID,0,VALID,104,VALID,0,VALID,23.0333,VALID,132,VALID,1.52305,
2012-12-10, 03:32:04,VALID,1008.76,VALID,0,VALID,104,VALID,0,VALID,23.0121,VALID,129,VALID,1.66523,
2012-12-10, 03:33:04,VALID,1008.8,VALID,0,VALID,104,VALID,0,VALID,22.9926,VALID,125,VALID,1.54453,
2012-12-10, 03:34:04,VALID,1008.8,VALID,0,VALID,104,VALID,0,VALID,23.0316,VALID,117,VALID,1.55938,
2012-12-10, 03:35:04,VALID,1008.83,VALID,0,VALID,104,VALID,0,VALID,23.0316,VALID,109,VALID,1.31406,
2012-12-10, 03:36:04,VALID,1008.83,VALID,0,VALID,104,VALID,0,VALID,23.0121,VALID,121,VALID,1.15313,
2012-12-10, 03:37:04,VALID,1008.86,VALID,0,VALID,104,VALID,0,VALID,23.0138,VALID,141,VALID,0.816016,
2012-12-10, 03:38:04,VALID,1008.81,VALID,0,VALID,104,VALID,0.112112,VALID,23.0316,VALID,114,VALID,1.41172,
2012-12-10, 03:39:04,VALID,1008.81,VALID,0,VALID,104,VALID,0.112112,VALID,22.9926,VALID,114,VALID,0.937109,
2012-12-10, 03:40:04,VALID,1008.81,VALID,0,VALID,104,VALID,0,VALID,23.0121,VALID,113,VALID,0.753516,
2012-12-10, 03:41:04,VALID,1008.8,VALID,0,VALID,104,VALID,0,VALID,22.9714,VALID,102,VALID,1.2832,
2012-12-10, 03:42:04,VALID,1008.8,VALID,0,VALID,104,VALID,0,VALID,22.9731,VALID,126,VALID,0.849609,
2012-12-10, 03:43:04,VALID,1008.8,VALID,0,VALID,104,VALID,0,VALID,22.9926,VALID,109,VALID,0.680859,
2012-12-10, 03:44:04,VALID,1008.75,VALID,0,VALID,104,VALID,0,VALID,22.9731,VALID,145,VALID,1.02617,
2012-12-10, 03:45:04,VALID,1008.77,VALID,0,VALID,104,VALID,0,VALID,22.9926,VALID,130,VALID,1.21094,
2012-12-10, 03:46:04,VALID,1008.75,VALID,0,VALID,104,VALID,0,VALID,23.0316,VALID,112,VALID,0.765234,
2012-12-10, 03:47:04,VALID,1008.72,VALID,0,VALID,104,VALID,0,VALID,23.0121,VALID,134,VALID,0.927734,
2012-12-10, 03:48:04,VALID,1008.74,VALID,0,VALID,104,VALID,0,VALID,23.0121,VALID,119,VALID,1.11094,
2012-12-10, 03:49:04,VALID,1008.74,VALID,0,VALID,104,VALID,0,VALID,23.0121,VALID,118,VALID,1.1875,
2012-12-10, 03:50:04,VALID,1008.72,VALID,0,VALID,104,VALID,0,VALID,22.9926,VALID,104,VALID,1.00625,
2012-12-10, 03:51:04,VALID,1008.75,VALID,0,VALID,104,VALID,0,VALID,23.0121,VALID,128,VALID,1.18438,